SCP
0 0 0 0 0 0 0 0 0 0 0 0 0 0 0 0 0 0 0 0 0 0 0 0 0 0 0 0 0 0 0 0 0 0 0 0 0 0
1 0 0 0 0 0 0 0 0 0 0 0 0 0 0 0 0 0 0 0 0 0 0 0 0 0 0 0 0 0 0 0 0 0 0 0 0 0
1 1 1 1 0 0 0 0 0 0 0 0 0 0 0 0 0 0 0 0 0 0 0 0 0 0 0 0 0 0 0 0 0 0 0 0 0 0
1 1 1 1 1 1 0 0 0 0 0 0 0 0 0 0 0 0 0 0 0 0 0 0 0 0 0 0 0 0 0 0 0 0 0 0 0 0
1 1 1 1 1 1 1 0 0 0 0 0 0 0 0 0 0 0 0 0 0 0 0 0 0 0 0 0 0 0 0 0 0 0 0 0 0 0
1 1 1 1 1 1 1 1 1 0 0 0 0 0 0 0 0 0 0 0 0 0 0 0 0 0 0 0 0 0 0 0 0 0 0 0 0 0
1 1 1 1 1 1 1 1 1 1 1 0 0 0 0 0 0 0 0 0 0 0 0 0 0 0 0 0 0 0 0 0 0 0 0 0 0 0
2 2 1 1 1 1 1 1 1 1 1 1 0 0 0 0 0 0 0 0 0 0 0 0 0 0 0 0 0 0 0 0 0 0 0 0 0 0
2 2 2 2 1 1 0 0 0 0 0 0 0 0 0 0 0 0 0 0 0 0 0 0 0 0 0 0 0 0 0 0 0 0 0 0 0 0
3 3 3 2 2 1 1 0 0 0 0 0 0 0 0 0 0 0 0 0 0 0 0 0 0 0 0 0 0 0 0 0 0 0 0 0 0 0
2 2 3 3 2 1 1 1 0 0 0 0 0 0 0 0 0 0 0 0 0 0 0 0 0 0 0 0 0 0 0 0 0 0 0 0 0 0
2 2 2 2 2 1 1 1 1 0 0 0 0 0 0 0 0 0 0 0 0 0 0 0 0 0 0 0 0 0 0 0 0 0 0 0 0 0
2 2 2 2 1 0 1 1 1 1 0 0 0 0 0 0 0 0 0 0 0 0 0 0 0 0 0 0 0 0 0 0 0 0 0 0 0 0
2 2 2 2 1 0 0 1 1 0 0 0 0 0 0 0 0 0 0 0 0 0 0 0 0 0 0 0 0 0 0 0 0 0 0 0 0 0
1 1 2 2 1 0 0 0 0 0 0 0 0 0 0 0 0 0 0 0 0 0 0 0 0 0 0 0 0 0 0 0 0 0 0 0 0 0
0 0 1 1 0 0 0 0 0 0 0 0 0 0 0 0 0 0 0 0 0 0 0 0 0 0 0 0 0 0 0 0 0 0 0 0 0 0
0 0 0 0 0 0 0 0 0 0 0 0 0 0 0 0 0 0 0 0 0 0 0 0 0 0 0 0 0 0 0 0 0 0 0 0 0 0
0 0 0 0 0 0 0 1 0 0 0 0 0 0 0 0 0 0 0 0 0 0 0 0 0 0 0 0 0 0 0 0 0 0 0 0 0 0
0 0 0 0 0 0 0 0 0 0 0 0 0 0 0 0 0 0 0 0 0 0 0 0 0 0 0 0 0 0 0 0 0 0 0 0 0 0
0 0 0 0 0 0 0 0 0 0 0 0 0 0 0 0 0 0 0 0 0 0 0 0 0 0 0 0 0 0 0 0 0 0 0 0 0 0
0 0 0 0 0 0 0 0 0 0 0 0 0 0 0 0 0 0 0 0 0 0 0 0 0 0 0 0 0 0 0 0 0 0 0 0 0 0
0 0 0 0 0 0 0 0 0 0 0 0 0 0 0 0 0 0 0 0 0 0 0 0 0 0 0 0 0 0 0 0 0 0 0 0 0 0
0 0 0 0 0 0 0 0 0 0 0 0 0 0 0 0 0 0 0 0 0 0 0 0 0 0 0 0 0 0 0 0 0 0 0 0 0 0
Wind_Speed
3 3 2 1 1 2 2 3 4 2 3 3 2 3 3 3 4 4 4 8 11 11 11 11 11 11 10 10 9 9 8 8 8 8 7 8 8 9
3 3 2 1 1 1 1 2 3 4 3 3 3 2 2 3 4 4 4 6 8 9 9 10 10 10 10 10 10 9 8 8 8 7 7 7 7 7
3 3 3 2 1 1 1 1 2 2 3 2 2 1 0 1 1 2 2 3 3 7 8 9 9 9 9 9 8 8 7 7 7 7 6 6 6 6
4 3 3 2 2 2 1 1 1 2 3 2 1 1 1 1 1 1 1 2 2 4 6 7 8 7 7 7 7 7 7 7 6 6 6 6 6 6
4 3 3 3 2 2 2 1 1 1 2 2 2 1 1 1 1 1 1 1 0 1 3 4 5 5 5 6 6 6 6 6 6 5 5 5 5 6
3 3 3 3 3 3 2 2 1 1 1 1 1 0 0 1 1 1 1 1 1 2 2 2 1 0 2 3 4 5 5 5 5 4 5 5 5 5
2 2 2 3 3 2 2 2 2 1 1 1 0 1 1 1 0 0 1 0 1 2 2 2 2 2 1 1 1 2 3 4 4 4 4 5 5 6
2 1 1 2 2 3 3 3 3 3 2 2 1 1 0 0 0 0 1 1 1 2 2 2 2 2 2 1 2 2 1 1 2 3 4 5 5 6
2 1 1 1 2 2 3 4 4 4 3 3 2 1 1 0 1 1 1 1 0 2 1 1 2 2 2 2 3 4 4 3 3 3 4 4 5 5
2 2 2 2 2 3 4 4 4 4 3 2 2 2 1 1 1 1 1 1 1 2 2 1 2 2 2 2 4 4 5 5 5 5 4 4 5 5
4 3 3 3 4 6 6 6 5 4 6 8 8 7 7 6 3 3 3 2 2 2 2 1 2 2 2 2 3 5 5 5 5 4 4 4 4 4
4 5 7 5 6 6 5 5 5 3 4 5 6 6 5 6 8 4 2 2 2 1 3 2 1 2 2 3 3 3 4 5 5 4 4 4 5 2
4 3 4 8 9 9 7 5 5 4 4 5 4 4 5 5 5 5 4 3 3 1 2 1 1 2 1 2 3 3 3 3 3 3 4 6 5 2
4 3 4 9 11 10 8 9 9 7 5 5 5 4 4 4 4 4 5 4 3 2 1 2 1 1 1 1 3 3 3 3 3 3 3 5 5 5
5 8 9 10 10 9 11 11 8 5 5 5 5 3 3 3 4 4 5 5 5 5 5 3 2 1 1 0 1 2 3 3 3 3 3 3 2 2
6 8 11 12 10 9 8 7 5 5 5 4 3 3 3 4 4 4 3 3 4 5 6 5 3 2 1 1 0 1 2 3 3 3 3 3 3 2
6 6 6 6 6 6 5 5 5 5 5 4 4 4 4 4 3 3 3 3 3 3 4 5 5 3 1 0 1 2 2 3 3 3 3 3 3 3
8 6 5 5 5 4 5 5 5 4 4 4 4 4 3 3 3 3 3 3 2 2 3 3 4 4 5 4 1 1 2 3 3 3 2 2 4 3
7 5 5 4 4 4 4 4 3 3 3 4 4 4 3 3 3 3 3 3 2 2 3 2 2 2 3 4 6 2 1 3 3 3 3 2 3 4
5 5 4 4 4 4 4 4 4 4 4 4 4 4 3 3 3 3 3 2 2 2 3 3 3 2 1 2 3 5 4 2 2 3 3 3 3 4
4 4 4 4 4 4 4 4 4 4 4 4 4 4 3 3 3 3 3 4 3 2 3 4 4 6 2 1 2 4 5 5 4 3 3 2 3 3
4 4 4 4 4 4 4 4 4 4 4 4 3 3 3 3 3 3 3 2 2 2 3 4 5 4 2 2 3 4 5 6 6 7 4 3 2 2
4 4 4 4 4 4 4 4 5 3 3 3 3 3 3 2 2 2 3 2 2 3 3 4 4 3 3 2 3 3 5 5 4 4 5 7 7 6
Wind_Direction
192 187 187 199 187 188 174 164 160 196 256 263 260 248 221 199 206 200 212 221 220 221 223 225 227 228 228 230 233 236 240 244 248 252 257 262 265 267
191 186 192 194 173 166 169 169 167 173 218 252 247 256 234 208 193 192 210 221 221 221 224 228 230 230 232 233 234 235 238 241 247 251 255 260 264 269
202 196 206 199 192 198 158 149 162 159 192 262 278 292 264 214 194 204 211 219 225 224 223 226 230 233 235 234 234 236 238 240 243 248 252 256 262 269
205 201 219 209 206 202 173 171 181 178 174 218 280 307 296 232 190 191 211 210 217 226 227 233 236 237 236 233 230 231 234 237 240 245 252 257 264 271
197 196 213 197 209 209 186 189 207 191 166 174 229 250 294 354 39 5 31 357 208 231 234 243 238 233 232 230 226 229 232 235 239 245 249 256 266 275
184 184 188 186 201 203 192 206 202 172 148 149 192 251 326 346 82 65 18 358 3 19 21 31 47 216 229 222 222 223 224 227 231 238 246 257 267 276
172 169 156 143 153 172 179 190 173 154 138 127 128 59 31 42 62 139 143 328 10 27 15 8 27 31 17 7 285 257 240 231 230 237 249 258 266 273
165 170 139 116 104 108 111 114 130 154 166 151 151 143 198 149 5 87 107 69 339 345 31 359 28 19 357 12 11 10 332 292 273 271 273 273 275 280
134 132 116 77 96 102 87 76 64 63 112 148 143 173 176 213 113 63 75 94 274 317 48 5 1 2 341 6 17 15 1 346 334 324 312 299 294 294
99 113 117 98 90 109 104 84 65 45 58 92 115 116 112 135 154 160 154 111 58 7 44 62 348 333 339 354 8 9 358 353 347 336 330 332 330 321
71 75 102 107 92 104 106 101 83 55 59 75 81 78 69 59 64 76 66 81 49 356 9 64 340 331 339 339 352 4 355 340 335 339 343 343 341 336
66 55 62 78 84 98 111 113 103 86 79 74 62 52 49 45 47 59 80 96 90 6 342 28 0 11 355 329 340 351 352 349 352 352 350 348 346 349
87 61 50 71 76 76 83 90 102 102 87 81 67 48 41 37 32 34 45 84 96 59 328 36 28 21 22 320 328 337 352 349 352 352 353 349 348 355
94 78 66 67 70 70 73 74 79 81 77 73 64 49 38 29 23 29 38 47 65 90 358 55 76 42 33 349 319 324 335 345 353 348 345 349 351 355
88 87 80 73 68 66 67 71 73 73 76 73 65 48 29 23 29 34 30 34 34 31 30 34 49 33 94 162 301 314 322 327 341 342 337 340 333 342
81 75 72 69 67 64 59 56 58 68 80 80 71 45 35 41 39 35 35 28 34 6 359 12 26 46 31 338 235 315 316 311 322 331 334 331 331 336
94 78 68 65 63 58 56 53 53 56 61 56 57 50 44 45 35 29 39 44 46 12 353 350 354 9 23 168 18 332 320 315 305 316 332 326 314 311
90 85 80 76 76 75 73 62 54 53 53 57 55 51 46 45 34 25 37 46 38 7 349 339 350 4 7 349 283 294 322 307 307 314 313 311 304 302
84 84 84 82 79 75 73 71 59 46 51 56 54 43 39 38 38 28 23 26 15 355 337 336 3 38 22 340 314 303 277 303 316 319 310 287 278 285
77 85 84 81 79 75 71 68 60 49 46 46 45 40 37 39 34 23 19 21 8 357 349 347 352 352 273 262 278 297 304 284 297 305 300 300 287 292
75 75 77 80 79 78 76 71 67 59 50 46 39 33 30 38 30 17 12 14 22 10 354 329 303 313 285 358 332 312 304 304 283 262 277 303 316 326
82 80 77 79 82 81 77 73 66 56 46 41 30 22 21 34 30 17 12 7 355 341 325 312 321 343 13 1 311 297 301 313 322 326 305 245 239 281
92 87 83 81 81 82 83 79 74 59 46 38 27 15 13 15 7 9 4 1 348 339 335 332 338 344 331 313 307 303 309 313 318 329 320 319 315 304